Metropolitan Oakland International Airport Oakland US
ICAO: KOAK
IATA: OAK
Category: Large
Scheduled Services: Yes

Elevation: 9 ft
TransAlt. 18000 ft.

Airport Communications:
NORCAL APP:31.76
NORCAL APP:125.35
ATIS:133.775
CLNC DEL:121.1
NORCAL DEP:120.9
GND:121.75
OAKLAND RDO:122
OAKLAND TWR:118.3
UNICOM:122.95

KOAK Zoom In..

If Map Doesn't Load, Click Here

Runways:

(A) RW 09L length 5458 ft width 150 ft
---- / hdg 96

(B) RW 09R length 6213 ft width 150 ft
---- / hdg 96

(C) RW 11 length 10001 ft width 150 ft
ILS 111.90 / hdg 114

(D) RW 15 length 3376 ft width 75 ft
---- / hdg 148

(E) RW 27L length 6213 ft width 150 ft
---- / hdg 276

(F) RW 27R length 5458 ft width 150 ft
ILS 109.90 / hdg 276

(G) RW 29 length 10001 ft width 150 ft
ILS 108.70 / hdg 294

(H) RW 33 length 3376 ft width 75 ft
---- / hdg 328

Location; KOAK
Day. 26 / Time. 09.53 Zulu
* Altimeter: 29.97
* Temperature: 12° c. 53.6°f.
* Wind from: 000° Speed 00 kn.
Dewpoint: 11° c.
Visibility: 7 Statute Miles.
Clouds: Few 700 ft.

KOAK 260953Z 00000KT 7SM FEW007 12/11 A2997 RMK AO2 SLP148 T01170111


Wind - Calm.

 
 
jpsmedia.com for Web Design worldairports.se 2018   terms of use